Temperature
18 18 18 18 18 18 18 18 18 18 18 18 18 18 18 18 18 18 18 18 18 18 18 18 18 18 18 18 18 18 18 18 18 18 18 18 18 18 18 18 18 17 18
18 18 18 18 18 18 18 18 18 18 18 18 18 18 18 18 18 18 18 18 18 18 18 18 18 18 18 18 18 18 18 18 18 18 18 18 18 18 18 18 17 17 18
18 18 18 18 18 18 18 18 18 18 18 18 18 18 18 18 18 18 18 18 18 18 18 18 18 18 18 18 18 18 18 18 18 18 18 17 17 18 18 18 18 18 18
18 18 17 18 18 18 18 18 18 18 18 18 18 18 18 18 18 18 18 18 18 18 18 18 18 18 18 18 18 18 18 18 18 18 18 18 17 18 18 18 18 18 17
18 18 18 18 18 18 18 18 18 18 18 18 18 18 18 18 18 18 18 18 18 18 18 18 18 18 18 18 18 18 18 18 18 17 17 17 17 18 18 18 17 17 17
19 18 18 18 18 18 18 18 18 18 18 18 18 18 18 18 18 18 18 18 18 18 18 18 18 18 18 18 18 18 18 18 18 17 17 17 17 18 18 18 17 17 17
19 18 18 18 18 18 18 18 18 18 18 18 18 18 18 18 18 18 18 18 18 18 18 18 18 18 18 18 18 18 18 17 17 17 17 17 17 18 18 17 17 17 17
19 19 18 18 18 18 18 18 18 18 18 18 18 18 18 18 18 18 18 18 18 18 18 18 18 18 18 18 18 18 18 17 17 17 17 17 18 18 17 17 17 17 17
19 19 18 18 18 18 18 18 18 18 18 18 18 18 18 18 18 18 18 18 18 18 18 18 18 18 18 18 18 18 18 18 18 17 17 17 18 17 17 17 17 17 17
19 19 19 18 18 18 18 18 18 18 18 18 18 18 18 18 18 18 18 18 18 18 18 18 18 18 18 18 18 18 18 18 18 18 17 17 17 17 17 17 17 17 17
19 19 19 18 18 18 18 18 18 18 18 18 18 18 18 17 17 17 17 18 18 18 18 18 18 18 18 18 18 18 18 18 18 18 17 18 18 17 17 17 17 17 17
19 19 19 18 18 18 18 18 18 18 18 18 18 17 17 18 17 17 18 18 18 18 18 18 18 18 18 18 18 18 18 18 18 18 18 18 18 18 17 17 17 17 17
19 19 18 18 18 18 18 18 18 18 18 18 18 18 18 17 17 17 17 17 17 18 17 17 17 18 18 18 18 18 18 18 18 18 18 18 18 17 17 17 17 17 17
19 19 18 18 18 18 18 18 18 18 18 18 17 17 17 17 17 17 17 17 17 17 17 17 17 17 17 17 17 18 18 18 18 17 17 18 17 17 17 17 17 17 17
19 19 18 18 18 18 18 18 18 18 18 18 17 17 17 17 17 17 17 17 18 17 17 17 17 17 17 17 17 17 17 17 17 17 17 18 17 17 17 17 17 17 17
19 19 19 18 18 18 18 18 18 18 18 17 17 17 17 17 17 17 17 17 17 17 17 17 17 17 17 17 17 17 17 17 17 17 17 17 18 18 17 17 17 17 17
19 19 19 18 18 18 18 18 18 18 18 18 17 17 17 17 18 17 18 17 18 17 17 17 17 18 18 18 17 17 17 17 17 17 17 17 17 17 17 17 17 17 17
19 19 19 19 18 18 18 18 18 18 18 18 17 17 18 18 18 18 18 18 18 17 17 18 17 18 18 18 17 17 17 17 17 17 17 17 17 17 17 17 17 17 17
19 19 19 19 18 18 18 18 18 18 18 18 17 17 17 17 17 17 18 18 17 17 17 18 17 17 17 17 18 17 17 17 17 17 17 17 17 17 17 17 17 17 17
19 19 19 19 19 18 18 18 18 18 18 18 18 17 17 17 17 17 17 18 17 17 17 17 17 17 17 17 18 18 17 17 17 17 17 17 17 17 17 17 17 17 17
20 19 19 19 19 19 18 18 18 18 18 18 18 18 18 17 17 17 17 17 17 17 17 17 17 17 17 17 18 18 18 17 17 17 17 17 17 17 17 17 16 16 16
20 20 20 19 19 19 19 19 18 18 18 18 18 18 18 18 18 18 17 17 17 17 17 17 17 17 17 17 17 18 19 18 18 17 17 17 17 17 17 17 16 16 16
20 20 20 19 19 19 19 19 18 18 18 18 18 18 18 18 18 18 18 17 17 17 17 17 17 17 17 17 17 17 18 19 18 18 17 17 17 16 16 16 16 16 16
21 20 20 20 20 19 19 19 18 18 18 18 18 18 18 18 18 18 18 18 17 17 17 17 17 17 17 17 17 17 17 17 18 18 18 17 17 17 16 16 16 16 16
21 20 20 20 20 20 20 19 19 18 18 18 18 18 18 18 18 18 18 18 18 17 17 17 17 17 17 17 17 17 17 17 17 17 18 17 17 17 16 16 16 16 16
21 21 20 20 20 20 20 19 19 19 19 18 18 18 18 18 18 18 18 18 18 17 17 17 17 17 17 17 17 17 17 17 17 17 17 17 17 17 16 16 16 16 16
Wind_Speed
6 7 9 9 10 10 11 12 12 13 13 13 13 13 13 14 14 14 14 14 15 15 15 15 16 17 17 18 18 18 18 18 17 16 16 15 15 14 13 12 11 12 14
6 8 9 9 10 11 11 12 12 13 13 13 13 13 14 14 14 15 14 14 14 15 15 16 17 17 18 18 17 17 17 17 16 16 15 15 14 13 12 9 5 11 13
6 8 10 10 10 11 12 12 12 13 13 13 13 13 14 14 14 14 14 14 14 15 15 16 16 17 16 17 17 16 16 16 15 13 12 12 13 13 11 10 9 11 12
7 8 10 11 11 12 13 13 12 13 13 13 13 13 14 14 14 14 15 15 15 15 15 14 15 16 16 16 16 15 15 14 13 10 8 9 11 12 11 10 10 10 11
8 9 11 10 11 11 12 13 13 13 13 13 13 14 14 15 14 14 15 15 15 14 14 13 14 15 15 15 15 14 13 12 10 8 8 8 9 12 10 10 9 9 9
8 10 11 9 10 11 12 12 13 13 12 13 13 13 13 14 14 14 14 14 14 14 13 13 13 13 14 14 13 13 11 10 8 8 7 7 9 12 10 9 8 8 8
8 9 10 10 10 11 11 12 12 12 12 13 12 12 12 13 13 13 14 13 13 13 13 12 12 13 13 12 11 10 8 6 5 7 6 6 8 11 9 8 8 8 7
8 8 10 9 9 10 11 11 11 11 12 12 12 12 12 12 12 12 12 13 13 12 12 12 12 11 11 11 10 9 6 3 5 5 5 6 9 9 8 8 8 8 7
7 7 7 8 9 10 11 11 11 11 11 11 12 12 12 12 12 11 12 12 12 12 12 11 11 10 9 9 9 7 5 2 2 4 4 5 9 8 7 7 7 7 7
6 6 6 7 7 8 10 11 10 10 11 11 12 11 11 11 11 11 11 11 11 10 10 10 10 9 8 8 7 6 5 5 4 4 4 6 9 7 7 7 7 7 7
6 6 6 7 6 7 8 10 9 9 10 9 10 9 7 8 8 8 12 11 10 10 9 8 8 8 7 8 7 6 6 3 3 3 4 8 7 6 6 6 7 8 7
6 6 6 6 6 6 7 7 6 7 8 7 7 7 6 7 6 7 11 10 9 8 8 7 7 6 5 5 8 8 3 3 3 3 5 8 6 5 5 5 6 7 8
6 6 6 5 4 5 5 5 5 5 5 6 7 6 6 5 5 5 5 6 6 5 5 6 5 3 2 2 1 2 2 1 1 2 5 7 5 4 4 5 5 6 7
6 6 6 5 5 4 4 4 4 4 4 5 5 4 5 4 4 4 3 4 3 3 3 2 2 3 2 2 1 1 1 1 1 2 4 7 4 3 3 4 5 5 6
6 6 6 4 4 4 3 2 4 4 4 5 4 5 4 4 4 4 4 3 3 3 3 2 2 3 2 2 1 1 0 0 0 1 3 6 5 4 4 4 4 5 6
6 6 6 5 5 4 3 2 3 3 3 3 4 5 4 4 3 3 3 3 3 3 3 2 2 1 1 1 1 1 0 0 1 0 1 4 6 5 4 4 4 5 5
7 7 6 5 5 4 3 2 2 2 3 3 3 4 3 3 3 2 2 2 3 3 2 2 2 1 1 1 1 1 0 0 0 0 1 1 3 6 5 3 3 4 5
7 7 6 5 5 4 2 1 2 2 2 2 3 3 3 3 2 1 2 2 2 2 1 1 1 1 2 1 1 1 0 1 1 1 1 1 1 1 5 5 4 4 4
7 7 6 5 5 4 3 2 2 2 1 1 2 2 2 2 1 0 1 2 0 0 1 1 2 2 2 2 1 0 0 0 0 1 1 1 1 2 2 5 6 6 5
7 7 6 6 5 4 4 3 2 2 2 1 1 1 1 1 0 1 1 1 1 0 1 1 1 1 1 1 1 1 0 0 1 0 1 1 1 2 2 2 3 6 7
8 7 7 6 6 5 4 3 3 3 2 2 1 2 1 1 1 1 1 1 1 0 0 0 1 0 0 1 1 1 1 2 1 1 1 2 1 1 2 2 2 2 3
8 8 8 7 7 6 4 3 2 1 2 2 1 1 2 2 2 2 1 2 1 1 1 1 1 2 1 1 2 2 1 2 2 1 1 1 2 1 2 2 1 2 3
10 9 8 8 7 7 6 4 3 3 3 2 2 2 2 2 2 2 2 2 1 2 1 2 2 2 2 2 2 3 3 2 2 1 1 1 2 2 2 2 2 2 3
10 9 8 8 7 7 7 6 5 4 3 2 2 1 2 2 2 2 2 2 2 2 1 3 1 3 3 3 1 2 3 3 3 2 1 1 1 2 2 3 2 2 3
11 10 9 9 8 8 7 7 6 5 4 3 2 2 2 2 2 2 3 3 3 2 2 3 3 4 3 4 3 2 2 2 4 4 3 3 2 1 2 2 2 2 2
10 10 10 9 9 8 8 7 7 6 5 4 3 2 3 2 2 3 3 3 3 3 2 3 3 4 4 4 4 3 3 3 3 3 4 4 3 2 2 2 2 2 2
Wind_Direction
36 46 53 65 73 80 82 83 82 84 84 84 85 89 93 96 98 100 101 105 109 112 114 116 119 122 125 126 126 126 126 124 123 123 124 127 128 128 128 134 144 129 123
51 61 72 70 72 78 84 85 83 85 86 85 86 90 93 95 96 97 98 102 106 112 114 115 117 121 124 125 125 126 127 127 126 128 130 130 129 128 132 134 124 118 132
66 72 82 74 74 79 86 87 84 85 88 86 87 93 94 95 97 98 98 101 104 111 113 114 116 118 121 122 123 124 125 126 128 134 147 137 128 130 131 126 119 124 133
68 73 74 77 77 82 86 86 85 87 89 88 90 95 94 93 95 96 98 100 101 104 108 113 117 116 116 117 120 121 122 124 131 149 141 123 125 126 129 129 130 130 133
74 75 80 76 78 83 86 86 86 91 92 93 92 92 93 92 93 95 97 99 101 101 105 114 117 116 116 116 119 122 124 129 145 155 121 120 121 126 133 135 138 138 138
81 78 82 77 80 83 88 89 86 86 89 96 97 95 95 94 93 92 94 96 99 100 102 109 113 114 114 116 119 123 129 145 163 132 124 125 122 131 139 143 145 144 146
81 82 86 85 82 82 86 90 86 85 86 91 96 97 98 97 96 95 94 95 97 98 99 106 111 112 113 116 120 126 136 154 141 123 127 123 122 134 144 150 152 154 156
85 83 94 99 91 86 85 84 85 88 88 91 94 94 95 97 98 97 96 97 97 98 102 103 106 112 116 119 121 122 129 172 134 127 128 127 126 139 152 161 164 164 169
88 85 89 100 107 103 93 85 84 85 88 90 91 91 91 94 97 97 99 99 100 101 104 106 108 110 114 116 120 124 133 184 149 127 132 125 131 150 163 170 175 179 183
96 93 95 91 102 107 106 95 88 85 84 87 89 88 92 101 105 105 106 101 102 103 107 111 110 109 110 116 124 136 164 203 157 141 127 122 135 156 172 179 183 188 194
103 98 99 96 102 101 97 98 100 98 89 96 97 98 103 96 95 107 89 96 100 103 108 113 115 118 128 138 147 168 202 189 144 119 111 114 140 164 177 184 190 197 205
109 105 100 92 94 98 93 94 91 89 88 87 87 89 88 83 81 86 98 100 101 106 114 116 126 153 184 146 156 185 183 169 146 131 118 126 152 177 192 196 201 206 211
123 116 109 102 85 88 93 92 83 82 86 91 86 86 87 88 91 94 101 112 114 126 121 127 157 141 121 102 125 153 139 124 117 118 116 133 158 187 201 200 207 211 215
123 115 108 108 106 92 84 89 90 88 88 86 86 77 82 79 74 75 73 77 89 98 94 106 108 99 97 108 117 121 125 132 117 109 118 132 158 187 204 207 217 220 224
133 129 119 114 107 108 100 91 85 79 80 88 83 76 68 77 70 72 65 62 70 83 101 88 86 92 99 116 130 119 139 131 115 156 133 143 166 189 209 226 237 237 231
145 137 130 130 123 120 116 99 90 89 89 85 83 78 69 75 70 67 77 61 60 63 63 69 86 100 99 94 109 96 299 13 99 209 174 152 169 186 211 232 245 238 233
148 143 143 141 135 132 122 114 104 102 95 91 87 87 74 74 72 63 69 65 58 66 83 90 76 87 111 120 96 80 140 9 67 175 247 247 183 179 193 218 236 229 224
155 153 156 153 144 145 136 118 104 94 94 93 99 93 74 60 65 49 59 56 54 70 84 88 65 51 54 36 46 14 122 154 202 216 222 232 266 224 186 188 214 215 223
164 163 164 165 161 161 155 158 150 128 109 101 102 90 85 77 61 56 62 55 49 75 65 36 68 28 38 17 5 71 4 68 215 221 233 232 229 261 261 177 199 205 214
172 172 175 176 176 176 173 171 175 169 174 163 144 105 65 94 73 298 151 126 243 142 59 39 38 27 345 333 333 15 326 258 270 217 252 241 240 257 267 272 223 197 198
180 181 186 188 181 187 189 192 183 179 179 171 171 147 182 223 217 245 287 151 249 201 274 269 300 256 290 315 283 267 215 210 238 258 267 295 292 287 280 271 269 266 200
188 190 192 194 192 196 192 199 197 187 189 183 174 156 215 230 245 223 227 253 229 214 219 245 259 295 299 277 304 297 276 196 186 215 257 270 296 291 279 259 279 262 267
193 195 198 198 195 200 195 199 192 187 206 187 192 193 213 236 247 264 242 259 259 252 232 252 255 273 296 289 302 305 308 336 326 184 222 269 287 292 285 289 261 266 266
195 193 196 196 199 200 199 207 209 208 208 205 220 209 224 241 256 247 244 246 263 279 264 256 251 269 272 286 263 266 294 306 295 294 246 269 277 280 304 299 294 271 267
195 193 192 193 196 197 201 202 211 218 213 208 216 208 241 237 238 234 233 233 244 259 273 287 273 267 267 275 283 276 268 252 260 278 293 301 294 298 303 292 291 294 286
194 194 193 189 193 195 200 205 213 220 224 225 229 229 233 225 222 220 231 234 242 258 257 266 270 261 267 278 282 282 278 280 279 281 285 288 300 305 314 311 296 298 298
Height
1518 1515 1512 1511 1509 1508 1508 1507 1507 1507 1507 1507 1507 1507 1507 1509 1510 1511 1512 1514 1515 1517 1518 1520 1521 1523 1525 1527 1529 1531 1533 1535 1538 1540 1541 1543 1545 1547 1549 1550 1552 1554 1554
1520 1517 1514 1513 1512 1511 1510 1510 1510 1510 1510 1510 1510 1510 1511 1512 1513 1514 1515 1516 1517 1519 1521 1522 1524 1526 1528 1530 1532 1534 1536 1538 1539 1542 1543 1545 1547 1548 1550 1552 1553 1555 1555
1521 1519 1518 1516 1515 1514 1513 1513 1513 1513 1513 1513 1513 1513 1514 1515 1516 1517 1518 1519 1519 1521 1523 1525 1527 1528 1530 1532 1534 1536 1538 1540 1542 1544 1546 1549 1549 1550 1552 1553 1554 1555 1556
1523 1522 1520 1519 1518 1517 1516 1516 1516 1515 1516 1516 1516 1516 1517 1518 1519 1520 1521 1522 1523 1525 1526 1528 1529 1531 1532 1534 1536 1538 1540 1542 1544 1546 1549 1551 1551 1551 1552 1554 1555 1556 1557
1525 1524 1522 1521 1521 1520 1520 1519 1519 1519 1519 1519 1520 1520 1520 1521 1522 1523 1524 1525 1526 1528 1529 1530 1532 1533 1535 1536 1539 1540 1542 1544 1546 1549 1551 1552 1553 1553 1554 1555 1556 1557 1558
1527 1527 1525 1524 1523 1523 1523 1523 1522 1522 1522 1522 1523 1523 1524 1525 1526 1526 1527 1528 1529 1530 1531 1532 1534 1536 1537 1539 1541 1542 1544 1546 1548 1551 1552 1553 1554 1553 1554 1556 1556 1557 1558
1530 1530 1528 1527 1526 1526 1526 1526 1526 1526 1525 1526 1526 1527 1528 1528 1529 1529 1530 1531 1532 1533 1533 1534 1536 1538 1539 1541 1543 1544 1546 1548 1550 1552 1553 1554 1554 1554 1555 1556 1557 1558 1558
1532 1532 1530 1529 1529 1529 1529 1529 1529 1529 1529 1529 1530 1530 1531 1531 1532 1533 1533 1534 1535 1536 1536 1538 1539 1540 1542 1543 1545 1546 1547 1549 1552 1553 1554 1555 1554 1555 1555 1556 1557 1558 1559
1534 1534 1534 1533 1532 1532 1532 1532 1532 1532 1532 1533 1533 1533 1534 1534 1535 1536 1536 1537 1538 1538 1539 1540 1541 1543 1544 1545 1546 1548 1549 1550 1553 1554 1555 1555 1555 1555 1556 1556 1557 1558 1558
1536 1536 1537 1536 1535 1536 1536 1535 1535 1535 1535 1535 1536 1536 1537 1537 1538 1539 1539 1540 1540 1541 1542 1543 1544 1545 1546 1547 1548 1549 1550 1551 1554 1554 1555 1555 1554 1555 1555 1556 1557 1557 1558
1538 1538 1539 1538 1538 1539 1539 1539 1539 1538 1538 1539 1539 1539 1540 1542 1542 1543 1542 1542 1543 1543 1544 1545 1546 1547 1548 1549 1549 1550 1552 1554 1555 1555 1555 1554 1554 1555 1555 1556 1556 1557 1557
1540 1540 1541 1540 1540 1541 1541 1541 1542 1542 1542 1542 1542 1543 1543 1543 1544 1545 1544 1545 1545 1545 1546 1547 1547 1548 1550 1551 1551 1552 1553 1554 1555 1555 1554 1554 1554 1554 1555 1555 1555 1556 1556
1541 1542 1542 1542 1542 1543 1543 1544 1544 1544 1544 1545 1545 1545 1545 1546 1547 1547 1547 1547 1547 1548 1549 1549 1550 1551 1551 1552 1553 1553 1554 1555 1555 1555 1554 1553 1553 1554 1554 1554 1554 1554 1554
1542 1543 1544 1544 1543 1544 1545 1546 1546 1547 1547 1547 1547 1548 1548 1548 1548 1549 1548 1549 1549 1550 1550 1551 1551 1551 1551 1552 1552 1553 1554 1554 1554 1554 1553 1553 1553 1553 1553 1553 1553 1553 1553
1543 1544 1545 1545 1545 1546 1546 1547 1548 1548 1549 1549 1549 1549 1549 1550 1550 1550 1549 1549 1550 1551 1551 1551 1552 1551 1552 1552 1552 1553 1553 1553 1553 1553 1553 1552 1552 1552 1552 1551 1551 1551 1551
1544 1545 1546 1546 1547 1547 1548 1548 1548 1549 1549 1550 1551 1551 1550 1551 1551 1551 1551 1550 1551 1551 1552 1551 1552 1552 1552 1552 1552 1552 1552 1553 1552 1552 1552 1552 1551 1551 1551 1550 1550 1549 1549
1545 1546 1547 1547 1548 1548 1549 1550 1550 1551 1551 1552 1552 1551 1551 1552 1551 1551 1552 1552 1552 1552 1552 1552 1552 1552 1552 1552 1552 1551 1551 1551 1551 1551 1551 1551 1551 1550 1549 1549 1548 1547 1547
1545 1546 1547 1549 1549 1549 1550 1550 1551 1552 1552 1553 1553 1553 1552 1552 1552 1552 1553 1553 1552 1553 1553 1553 1553 1553 1552 1552 1552 1551 1551 1550 1550 1550 1550 1550 1550 1549 1548 1547 1547 1546 1546
1545 1546 1547 1548 1549 1550 1551 1551 1552 1552 1552 1553 1553 1553 1553 1553 1553 1553 1553 1553 1553 1554 1553 1553 1553 1553 1552 1551 1551 1551 1550 1550 1549 1549 1549 1549 1548 1547 1547 1546 1545 1545 1544
1544 1545 1547 1548 1549 1550 1551 1551 1552 1553 1553 1553 1554 1553 1553 1553 1553 1553 1554 1553 1553 1554 1553 1553 1552 1551 1551 1551 1551 1550 1549 1549 1548 1548 1548 1548 1547 1546 1546 1545 1544 1543 1542
1543 1545 1546 1547 1548 1549 1550 1552 1552 1553 1553 1554 1554 1553 1553 1553 1553 1553 1554 1553 1553 1553 1553 1553 1552 1552 1551 1550 1550 1549 1549 1548 1547 1547 1547 1546 1546 1545 1544 1543 1543 1542 1541
1542 1543 1545 1546 1547 1548 1549 1551 1551 1552 1553 1553 1553 1553 1552 1553 1552 1553 1552 1553 1553 1552 1552 1552 1551 1551 1551 1550 1550 1549 1548 1548 1546 1546 1545 1545 1544 1544 1543 1542 1541 1539 1539
1541 1542 1544 1545 1546 1547 1548 1549 1550 1551 1552 1552 1552 1552 1552 1552 1552 1552 1552 1552 1552 1552 1552 1551 1550 1550 1550 1549 1548 1549 1548 1546 1546 1545 1544 1544 1543 1542 1541 1540 1539 1538 1537
1539 1541 1542 1543 1544 1545 1546 1548 1549 1550 1551 1551 1551 1552 1551 1551 1551 1551 1551 1551 1550 1551 1550 1550 1550 1549 1548 1549 1548 1547 1547 1546 1545 1544 1544 1543 1541 1540 1539 1539 1538 1536 1535
1537 1539 1540 1541 1542 1543 1545 1546 1547 1548 1549 1550 1550 1550 1550 1550 1550 1550 1550 1550 1549 1550 1549 1548 1548 1547 1547 1547 1547 1546 1545 1544 1544 1543 1542 1541 1540 1539 1538 1536 1535 1534 1533
1534 1536 1538 1539 1540 1541 1543 1544 1545 1546 1547 1548 1548 1549 1549 1549 1549 1549 1548 1548 1548 1548 1547 1547 1546 1546 1545 1545 1545 1544 1544 1543 1542 1541 1540 1539 1538 1537 1536 1534 1533 1532 1530